Dati Storici

Data ora Umidita' aria (%) Temperatura aria (°C) Rad globale (W/m²) Gonioanemometro (°) Tacoanemometro (m/s) Pioggia (mm)
04-11-2012 03:30 90.7 % 11.01 3.12 28.951 2.047 0
04-11-2012 03:20 90.4 % 11.061 2.941 1.103 1.453 0
04-11-2012 03:10 90 % 11.111 2.902 18.412 1.059 0
04-11-2012 03:00 89.7 % 11.136 3.633 353.687 0.925 0
04-11-2012 02:50 89.7 % 11.167 3.543 43.016 1.205 0
04-11-2012 02:40 89.8 % 11.205 3.594 25.647 1.434 0
04-11-2012 02:30 90 % 11.216 3.517 8.436 1.231 0
04-11-2012 02:20 90.3 % 11.202 3.697 19.196 1.589 0
04-11-2012 02:10 90.5 % 11.212 3.518 11.359 1.517 0
04-11-2012 02:00 90.6 % 11.202 3.518 6.377 2.657 0
04-11-2012 01:50 90.7 % 11.232 3.53 336.164 1.104 0
04-11-2012 01:40 90.8 % 11.251 3.505 16.147 0.81 0
04-11-2012 01:30 90.8 % 11.257 3.467 21.367 1.476 0
04-11-2012 01:20 90.9 % 11.292 3.505 353.744 1.893 0
04-11-2012 01:10 90.9 % 11.309 3.405 7.241 1.584 0
04-11-2012 01:00 91 % 11.337 3.482 10.969 1.674 0
04-11-2012 00:50 90.9 % 11.373 3.469 7.308 1.435 0
04-11-2012 00:40 91 % 11.461 3.429 43.117 1.228 0
04-11-2012 00:30 91.1 % 11.461 3.121 31.958 1.683 0
04-11-2012 00:20 91.1 % 11.501 3.48 44.775 0.648 0

I dati sono presentati in modo automatico a scopo informativo. In seguito a verifica i dati possono subire modifiche o essere invalidati e non riportati negli archivi definitivi.